Torna al catalogo

COSMOS 1823 DEB

LostLEO
NORAD 39831·DEBRIS·🇷🇺 Russia

Lanciato Feb 20, 1987 da Plesetsk Cosmodrome

Loading…

Prossimi Passaggi (prossime 24 ore)

TLE

ObsoletoSource: Space-Track

Epoca: Jun 30, 2026, 04:04 UTC

1 39831U 87020FF  26181.16992194  .00000052  00000-0  50101-3 0  9997
2 39831  73.6009 349.7505 0026806 188.0940 289.8912 12.43031779299158

Traccia COSMOS 1823 DEB in tempo reale con AllMySat

Download on the App Store